| time (UTC) | temp F | wind direction | speed MPH | gust MPH | rain 1hr in | rain 24hr in | rain mn in | humidity % | barometer mb |
| 20260509181037 | 87 | 287 | 4.0 | 6.0 | 0.00 | 0.00 | 0.00 | 66 | 1012.1 |
| 20260509180532 | 86 | 334 | 1.0 | 1.0 | 0.00 | 0.00 | 0.00 | 68 | 1012.4 |
| 20260509180030 | 84 | 299 | 1.0 | 1.0 | 0.00 | 0.00 | 0.00 | 70 | 1012.5 |
| 20260509175525 | 84 | 319 | 2.0 | 2.0 | 0.00 | 0.00 | 0.00 | 70 | 1012.2 |
| 20260509175017 | 85 | 265 | 2.0 | 2.0 | 0.00 | 0.00 | 0.00 | 69 | 1012.3 |
| 20260509174513 | 84 | 191 | 1.0 | 1.0 | 0.00 | 0.00 | 0.00 | 72 | 1012.4 |
| 20260509174009 | 84 | 186 | 0.0 | 1.0 | 0.00 | 0.00 | 0.00 | 73 | 1012.3 |
| 20260509173503 | 83 | 224 | 6.0 | 6.0 | 0.00 | 0.00 | 0.00 | 73 | 1012.5 |
| 20260509173000 | 83 | 255 | 2.0 | 3.0 | 0.00 | 0.00 | 0.00 | 75 | 1012.5 |
| 20260509172457 | 83 | 241 | 4.0 | 4.0 | 0.00 | 0.00 | 0.00 | 74 | 1012.7 |
| 20260509171952 | 82 | 281 | 3.0 | 3.0 | 0.00 | 0.00 | 0.00 | 75 | 1012.7 |
| 20260509171449 | 83 | 25 | 0.0 | 1.0 | 0.00 | 0.00 | 0.00 | 75 | 1012.6 |
| 20260509170945 | 83 | 282 | 4.0 | 4.0 | 0.00 | 0.00 | 0.00 | 74 | 1012.9 |
| 20260509170441 | 84 | 199 | 2.0 | 3.0 | 0.00 | 0.00 | 0.00 | 73 | 1012.8 |
| 20260509165937 | 83 | 213 | 4.0 | 4.0 | 0.00 | 0.00 | 0.00 | 75 | 1013.0 |
| 20260509165436 | 84 | 270 | 7.0 | 8.0 | 0.00 | 0.00 | 0.00 | 74 | 1013.0 |
| 20260509164932 | 83 | 222 | 0.0 | 0.0 | 0.00 | 0.00 | 0.00 | 74 | 1012.9 |
| 20260509164428 | 83 | 242 | 4.0 | 4.0 | 0.00 | 0.00 | 0.00 | 77 | 1012.8 |
| 20260509163924 | 83 | 310 | 0.0 | 1.0 | 0.00 | 0.00 | 0.00 | 77 | 1012.7 |
| 20260509163422 | 82 | 243 | 3.0 | 4.0 | 0.00 | 0.00 | 0.00 | 78 | 1013.0 |
| 20260509162920 | 82 | 227 | 6.0 | 7.0 | 0.00 | 0.00 | 0.00 | 78 | 1013.0 |
| 20260509162419 | 80 | 303 | 4.0 | 4.0 | 0.00 | 0.00 | 0.00 | 80 | 1013.0 |
| 20260509161915 | 80 | 312 | 3.0 | 3.0 | 0.00 | 0.00 | 0.00 | 82 | 1013.1 |
| 20260509161411 | 81 | 293 | 2.0 | 2.0 | 0.00 | 0.00 | 0.00 | 81 | 1012.9 |
| 20260509160907 | 80 | 237 | 0.0 | 0.0 | 0.00 | 0.00 | 0.00 | 82 | 1012.8 |
| 20260509160403 | 80 | 228 | 6.0 | 7.0 | 0.00 | 0.00 | 0.00 | 81 | 1012.8 |
| 20260509155858 | 80 | 213 | 4.0 | 6.0 | 0.00 | 0.00 | 0.00 | 84 | 1012.7 |
| 20260509155355 | 79 | 199 | 5.0 | 8.0 | 0.00 | 0.00 | 0.00 | 85 | 1012.7 |
| 20260509154851 | 79 | 170 | 8.0 | 10.0 | 0.00 | 0.00 | 0.00 | 85 | 1012.7 |
| 20260509154348 | 79 | 196 | 7.0 | 8.0 | 0.00 | 0.00 | 0.00 | 85 | 1012.7 |
| 20260509153845 | 77 | 157 | 8.0 | 8.0 | 0.00 | 0.00 | 0.00 | 87 | 1012.9 |
| 20260509153342 | 78 | 206 | 4.0 | 6.0 | 0.00 | 0.00 | 0.00 | 88 | 1012.8 |
| 20260509152839 | 77 | 238 | 3.0 | 4.0 | 0.00 | 0.00 | 0.00 | 88 | 1012.8 |
| 20260509152334 | 77 | 161 | 7.0 | 9.0 | 0.00 | 0.00 | 0.00 | 89 | 1012.5 |
| 20260509151832 | 78 | 162 | 6.0 | 7.0 | 0.00 | 0.00 | 0.00 | 88 | 1012.3 |
| 20260509151328 | 78 | 151 | 9.0 | 13.0 | 0.00 | 0.00 | 0.00 | 88 | 1012.0 |
| 20260509150827 | 77 | 190 | 6.0 | 9.0 | 0.00 | 0.00 | 0.00 | 88 | 1012.1 |
| 20260509150324 | 78 | 185 | 8.0 | 10.0 | 0.00 | 0.00 | 0.00 | 88 | 1012.2 |
| 20260509145821 | 77 | 203 | 6.0 | 9.0 | 0.00 | 0.00 | 0.00 | 89 | 1012.3 |
| 20260509145316 | 77 | 234 | 6.0 | 8.0 | 0.00 | 0.00 | 0.00 | 88 | 1012.4 |
| 20260509144812 | 78 | 155 | 8.0 | 10.0 | 0.00 | 0.00 | 0.00 | 88 | 1012.3 |
| 20260509144309 | 78 | 145 | 6.0 | 8.0 | 0.00 | 0.00 | 0.00 | 88 | 1012.2 |
| 20260509143806 | 78 | 176 | 4.0 | 6.0 | 0.00 | 0.00 | 0.00 | 88 | 1012.5 |
| 20260509143258 | 78 | 249 | 5.0 | 7.0 | 0.00 | 0.00 | 0.00 | 87 | 1012.1 |
| 20260509142754 | 79 | 157 | 5.0 | 6.0 | 0.00 | 0.00 | 0.00 | 86 | 1011.9 |
| 20260509142250 | 79 | 103 | 4.0 | 6.0 | 0.00 | 0.00 | 0.00 | 85 | 1011.8 |
| 20260509141746 | 79 | 173 | 2.0 | 3.0 | 0.00 | 0.00 | 0.00 | 85 | 1012.2 |
| 20260509141243 | 78 | 97 | 1.0 | 3.0 | 0.00 | 0.00 | 0.00 | 87 | 1011.8 |
| 20260509140740 | 77 | 172 | 4.0 | 6.0 | 0.00 | 0.00 | 0.00 | 88 | 1011.6 |
| 20260509140237 | 77 | 149 | 3.0 | 4.0 | 0.00 | 0.00 | 0.00 | 88 | 1011.6 |
| 20260509135734 | 77 | 184 | 6.0 | 7.0 | 0.00 | 0.00 | 0.00 | 88 | 1011.7 |
| 20260509135232 | 76 | 181 | 4.0 | 4.0 | 0.00 | 0.00 | 0.00 | 90 | 1011.2 |
| 20260509134729 | 76 | 192 | 8.0 | 11.0 | 0.00 | 0.00 | 0.00 | 90 | 1011.5 |
| 20260509134226 | 76 | 193 | 4.0 | 4.0 | 0.00 | 0.00 | 0.00 | 91 | 1011.7 |
| 20260509133724 | 75 | 259 | 6.0 | 8.0 | 0.00 | 0.00 | 0.00 | 92 | 1011.8 |
| 20260509133220 | 75 | 184 | 5.0 | 6.0 | 0.00 | 0.00 | 0.00 | 93 | 1011.9 |
| 20260509132719 | 74 | 194 | 6.0 | 7.0 | 0.00 | 0.00 | 0.00 | 94 | 1011.8 |
| 20260509132217 | 74 | 207 | 4.0 | 6.0 | 0.00 | 0.00 | 0.00 | 95 | 1011.9 |
| 20260509131713 | 73 | 177 | 5.0 | 6.0 | 0.00 | 0.00 | 0.00 | 96 | 1012.0 |
| 20260509131210 | 73 | 177 | 2.0 | 3.0 | 0.00 | 0.00 | 0.00 | 97 | 1012.0 |
| 20260509130706 | 72 | 164 | 4.0 | 4.0 | 0.00 | 0.00 | 0.00 | 98 | 1012.1 |
| 20260509130202 | 72 | 176 | 6.0 | 7.0 | 0.00 | 0.00 | 0.00 | 99 | 1012.2 |
| 20260509125658 | 72 | 193 | 2.0 | 2.0 | 0.00 | 0.00 | 0.00 | 99 | 1012.4 |
| 20260509125155 | 72 | 172 | 1.0 | 2.0 | 0.00 | 0.00 | 0.00 | 99 | 1012.2 |
| 20260509124652 | 72 | 237 | 0.0 | 1.0 | 0.00 | 0.00 | 0.00 | 99 | 1012.3 |
| 20260509124149 | 72 | 214 | 1.0 | 2.0 | 0.00 | 0.00 | 0.00 | 99 | 1012.3 |
| 20260509123647 | 72 | 218 | 0.0 | 0.0 | 0.00 | 0.00 | 0.00 | 99 | 1012.3 |
| 20260509123144 | 72 | 262 | 0.0 | 0.0 | 0.00 | 0.00 | 0.00 | 99 | 1012.2 |
| 20260509122639 | 71 | 318 | 0.0 | 1.0 | 0.00 | 0.00 | 0.00 | 99 | 1012.2 |
| 20260509122136 | 71 | 293 | 2.0 | 2.0 | 0.00 | 0.00 | 0.00 | 99 | 1011.9 |
| 20260509121633 | 71 | 330 | 1.0 | 2.0 | 0.00 | 0.00 | 0.00 | 99 | 1011.9 |
| 20260509121131 | 71 | 331 | 0.0 | 0.0 | 0.00 | 0.00 | 0.00 | 99 | 1012.1 |
| 20260509120628 | 71 | 264 | 2.0 | 3.0 | 0.00 | 0.00 | 0.00 | 99 | 1012.1 |
| 20260509120127 | 71 | 304 | 1.0 | 1.0 | 0.00 | 0.00 | 0.00 | 99 | 1012.2 |
| 20260509115623 | 71 | 348 | 3.0 | 4.0 | 0.00 | 0.00 | 0.00 | 99 | 1012.4 |
| 20260509115121 | 71 | 64 | 0.0 | 0.0 | 0.00 | 0.00 | 0.00 | 99 | 1012.0 |
| 20260509114619 | 71 | 126 | 1.0 | 1.0 | 0.00 | 0.00 | 0.00 | 99 | 1012.1 |
| 20260509114118 | 71 | 148 | 2.0 | 2.0 | 0.00 | 0.00 | 0.00 | 99 | 1012.4 |
| 20260509113616 | 72 | 147 | 1.0 | 2.0 | 0.00 | 0.00 | 0.00 | 99 | 1012.7 |
| 20260509113113 | 72 | 340 | 0.0 | 0.0 | 0.00 | 0.00 | 0.00 | 99 | 1012.8 |
| 20260509112609 | 72 | 357 | 0.0 | 1.0 | 0.00 | 0.00 | 0.00 | 99 | 1013.0 |
| 20260509112106 | 72 | 11 | 0.0 | 0.0 | 0.00 | 0.00 | 0.00 | 99 | 1013.1 |
| 20260509111603 | 72 | 328 | 4.0 | 4.0 | 0.00 | 0.00 | 0.00 | 99 | 1013.2 |
| 20260509111100 | 72 | 317 | 3.0 | 4.0 | 0.00 | 0.00 | 0.00 | 99 | 1013.4 |
| 20260509110557 | 72 | 294 | 3.0 | 3.0 | 0.00 | 0.00 | 0.00 | 99 | 1013.4 |
| 20260509110054 | 72 | 332 | 2.0 | 3.0 | 0.00 | 0.00 | 0.00 | 99 | 1013.5 |
| 20260509105553 | 72 | 323 | 1.0 | 1.0 | 0.00 | 0.00 | 0.00 | 99 | 1013.5 |
| 20260509105050 | 71 | 341 | 2.0 | 2.0 | 0.00 | 0.00 | 0.00 | 99 | 1013.5 |
| 20260509104547 | 71 | 326 | 2.0 | 2.0 | 0.00 | 0.00 | 0.00 | 99 | 1013.5 |
| 20260509104043 | 71 | 303 | 1.0 | 1.0 | 0.00 | 0.00 | 0.00 | 99 | 1013.4 |
| 20260509103541 | 71 | 334 | 3.0 | 3.0 | 0.00 | 0.00 | 0.00 | 99 | 1013.6 |
| 20260509103039 | 71 | 334 | 3.0 | 4.0 | 0.00 | 0.00 | 0.00 | 99 | 1013.5 |
| 20260509102536 | 71 | 331 | 0.0 | 0.0 | 0.00 | 0.00 | 0.00 | 99 | 1013.4 |
| 20260509102033 | 71 | 308 | 0.0 | 0.0 | 0.00 | 0.00 | 0.00 | 99 | 1013.6 |
| 20260509101529 | 71 | 324 | 1.0 | 2.0 | 0.00 | 0.00 | 0.00 | 99 | 1013.2 |
| 20260509101026 | 71 | 331 | 1.0 | 2.0 | 0.00 | 0.00 | 0.00 | 99 | 1013.2 |
| 20260509100523 | 71 | 5 | 1.0 | 2.0 | 0.00 | 0.00 | 0.00 | 99 | 1012.9 |
| 20260509100021 | 71 | 344 | 2.0 | 2.0 | 0.00 | 0.00 | 0.00 | 99 | 1012.9 |
| 20260509095517 | 71 | 117 | 0.0 | 0.0 | 0.00 | 0.00 | 0.00 | 99 | 1012.5 |
| 20260509095015 | 71 | 117 | 0.0 | 0.0 | 0.00 | 0.00 | 0.00 | 99 | 1012.4 |
| 20260509094511 | 71 | 117 | 0.0 | 0.0 | 0.00 | 0.00 | 0.00 | 99 | 1012.2 |
| 20260509094008 | 71 | 117 | 0.0 | 0.0 | 0.00 | 0.00 | 0.00 | 99 | 1012.1 |
| 20260509093506 | 71 | 117 | 0.0 | 0.0 | 0.00 | 0.00 | 0.00 | 99 | 1011.9 |
| 20260509093004 | 71 | 117 | 0.0 | 0.0 | 0.00 | 0.00 | 0.00 | 99 | 1011.8 |
| 20260509092501 | 71 | 201 | 0.0 | 0.0 | 0.00 | 0.00 | 0.00 | 99 | 1011.9 |
| 20260509092000 | 71 | 201 | 0.0 | 0.0 | 0.00 | 0.00 | 0.00 | 99 | 1011.8 |
| 20260509091456 | 71 | 201 | 0.0 | 1.0 | 0.00 | 0.00 | 0.00 | 99 | 1011.8 |
| 20260509090953 | 71 | 130 | 0.0 | 0.0 | 0.00 | 0.00 | 0.00 | 99 | 1011.7 |
| 20260509090451 | 71 | 131 | 0.0 | 0.0 | 0.00 | 0.00 | 0.00 | 99 | 1011.6 |
| 20260509085948 | 71 | 126 | 0.0 | 0.0 | 0.00 | 0.00 | 0.00 | 99 | 1011.7 |
| 20260509085444 | 71 | 73 | 0.0 | 0.0 | 0.00 | 0.00 | 0.00 | 99 | 1011.7 |
| 20260509084940 | 71 | 62 | 0.0 | 0.0 | 0.00 | 0.00 | 0.00 | 99 | 1012.0 |
| 20260509084432 | 71 | 63 | 0.0 | 0.0 | 0.00 | 0.00 | 0.00 | 99 | 1012.1 |
| 20260509083930 | 71 | 63 | 0.0 | 0.0 | 0.00 | 0.00 | 0.00 | 99 | 1012.2 |
| 20260509083427 | 71 | 89 | 1.0 | 1.0 | 0.00 | 0.00 | 0.00 | 99 | 1012.2 |
| 20260509082924 | 71 | 174 | 0.0 | 0.0 | 0.00 | 0.00 | 0.00 | 99 | 1012.5 |
| 20260509082421 | 71 | 140 | 1.0 | 1.0 | 0.00 | 0.00 | 0.00 | 99 | 1012.4 |
| 20260509081917 | 71 | 94 | 1.0 | 1.0 | 0.00 | 0.00 | 0.00 | 99 | 1012.1 |
| 20260509081415 | 71 | 86 | 0.0 | 0.0 | 0.00 | 0.00 | 0.00 | 99 | 1012.1 |
| 20260509080912 | 71 | 31 | 0.0 | 0.0 | 0.00 | 0.00 | 0.00 | 99 | 1012.0 |
| 20260509080410 | 71 | 70 | 0.0 | 1.0 | 0.00 | 0.00 | 0.00 | 99 | 1012.2 |
| 20260509075908 | 71 | 38 | 0.0 | 0.0 | 0.00 | 0.00 | 0.00 | 99 | 1012.4 |
| 20260509075405 | 71 | 25 | 0.0 | 0.0 | 0.00 | 0.00 | 0.00 | 99 | 1012.5 |
| 20260509074902 | 72 | 45 | 0.0 | 0.0 | 0.00 | 0.00 | 0.00 | 99 | 1012.4 |
| 20260509074400 | 72 | 22 | 0.0 | 0.0 | 0.00 | 0.00 | 0.00 | 99 | 1012.4 |
| 20260509073856 | 72 | 73 | 1.0 | 2.0 | 0.00 | 0.00 | 0.00 | 99 | 1012.4 |
| 20260509073353 | 72 | 68 | 0.0 | 0.0 | 0.00 | 0.00 | 0.00 | 99 | 1012.6 |
| 20260509072849 | 72 | 67 | 0.0 | 0.0 | 0.00 | 0.00 | 0.00 | 99 | 1012.5 |
| 20260509072346 | 72 | 74 | 0.0 | 1.0 | 0.00 | 0.00 | 0.00 | 98 | 1012.7 |
| 20260509071842 | 72 | 52 | 0.0 | 0.0 | 0.00 | 0.00 | 0.00 | 98 | 1012.6 |
| 20260509071339 | 72 | 55 | 0.0 | 1.0 | 0.00 | 0.00 | 0.00 | 98 | 1012.9 |
| 20260509070837 | 72 | 112 | 1.0 | 2.0 | 0.00 | 0.00 | 0.00 | 98 | 1012.8 |
| 20260509070333 | 72 | 115 | 2.0 | 2.0 | 0.00 | 0.00 | 0.00 | 98 | 1012.9 |
| 20260509065830 | 72 | 81 | 0.0 | 0.0 | 0.00 | 0.00 | 0.00 | 98 | 1012.8 |
| 20260509065326 | 72 | 81 | 0.0 | 0.0 | 0.00 | 0.00 | 0.00 | 98 | 1012.5 |
| 20260509064822 | 72 | 79 | 1.0 | 2.0 | 0.00 | 0.00 | 0.00 | 98 | 1012.6 |
| 20260509064320 | 72 | 74 | 0.0 | 1.0 | 0.00 | 0.00 | 0.00 | 97 | 1012.6 |
| 20260509063817 | 72 | 110 | 1.0 | 2.0 | 0.00 | 0.00 | 0.00 | 97 | 1012.4 |
| 20260509063313 | 72 | 107 | 2.0 | 2.0 | 0.00 | 0.00 | 0.00 | 97 | 1012.9 |
| 20260509062810 | 72 | 117 | 3.0 | 4.0 | 0.00 | 0.00 | 0.00 | 97 | 1012.7 |
| 20260509062308 | 72 | 96 | 2.0 | 3.0 | 0.00 | 0.00 | 0.00 | 96 | 1012.5 |
| 20260509061804 | 73 | 116 | 3.0 | 4.0 | 0.00 | 0.00 | 0.00 | 96 | 1012.3 |
| 20260509061302 | 73 | 116 | 3.0 | 4.0 | 0.00 | 0.00 | 0.00 | 95 | 1012.2 |
| 20260509060759 | 73 | 137 | 4.0 | 4.0 | 0.00 | 0.00 | 0.00 | 95 | 1012.2 |
| 20260509060255 | 73 | 130 | 4.0 | 6.0 | 0.00 | 0.00 | 0.00 | 95 | 1012.0 |
| 20260509055746 | 73 | 104 | 5.0 | 6.0 | 0.00 | 0.00 | 0.00 | 95 | 1012.1 |
| 20260509055241 | 73 | 141 | 5.0 | 6.0 | 0.00 | 0.00 | 0.00 | 95 | 1012.2 |
| 20260509054738 | 73 | 127 | 8.0 | 9.0 | 0.00 | 0.00 | 0.00 | 95 | 1012.2 |
| 20260509054235 | 73 | 107 | 3.0 | 3.0 | 0.00 | 0.00 | 0.00 | 95 | 1012.2 |
| 20260509053734 | 73 | 180 | 4.0 | 4.0 | 0.00 | 0.00 | 0.00 | 94 | 1011.8 |
| 20260509053230 | 73 | 117 | 8.0 | 8.0 | 0.00 | 0.00 | 0.00 | 94 | 1011.6 |
| 20260509052728 | 73 | 84 | 6.0 | 7.0 | 0.00 | 0.00 | 0.00 | 94 | 1011.3 |
| 20260509052226 | 73 | 109 | 8.0 | 10.0 | 0.00 | 0.00 | 0.00 | 93 | 1011.3 |
| 20260509051723 | 73 | 175 | 3.0 | 8.0 | 0.00 | 0.00 | 0.00 | 93 | 1011.3 |
| 20260509051221 | 73 | 124 | 6.0 | 7.0 | 0.00 | 0.00 | 0.00 | 93 | 1011.3 |
| 20260509050718 | 73 | 136 | 1.0 | 2.0 | 0.00 | 0.00 | 0.00 | 92 | 1011.1 |
| 20260509050214 | 74 | 169 | 2.0 | 3.0 | 0.00 | 0.00 | 0.00 | 92 | 1011.2 |
| 20260509045711 | 74 | 128 | 3.0 | 3.0 | 0.00 | 0.00 | 0.00 | 92 | 1011.3 |
| 20260509045208 | 74 | 139 | 0.0 | 0.0 | 0.00 | 0.00 | 0.00 | 92 | 1011.3 |
| 20260509044705 | 74 | 149 | 3.0 | 3.0 | 0.00 | 0.00 | 0.00 | 91 | 1011.5 |
| 20260509044203 | 74 | 171 | 4.0 | 6.0 | 0.00 | 0.00 | 0.00 | 91 | 1011.5 |
| 20260509043659 | 74 | 154 | 4.0 | 4.0 | 0.00 | 0.00 | 0.00 | 91 | 1011.5 |
| 20260509043155 | 74 | 136 | 4.0 | 4.0 | 0.00 | 0.00 | 0.00 | 91 | 1011.7 |
| 20260509042652 | 74 | 124 | 2.0 | 2.0 | 0.00 | 0.00 | 0.00 | 91 | 1011.6 |
| 20260509042148 | 74 | 136 | 3.0 | 4.0 | 0.00 | 0.00 | 0.00 | 91 | 1011.6 |
| 20260509041644 | 74 | 149 | 3.0 | 3.0 | 0.00 | 0.00 | 0.00 | 91 | 1011.6 |
| 20260509041142 | 74 | 131 | 5.0 | 6.0 | 0.00 | 0.00 | 0.00 | 90 | 1011.9 |
| 20260509040640 | 74 | 126 | 2.0 | 3.0 | 0.00 | 0.00 | 0.00 | 90 | 1011.9 |
| 20260509040137 | 74 | 86 | 2.0 | 3.0 | 0.00 | 0.00 | 0.00 | 90 | 1011.8 |
| 20260509035634 | 74 | 114 | 5.0 | 6.0 | 0.00 | 0.00 | 0.00 | 90 | 1012.0 |
| 20260509035130 | 74 | 130 | 3.0 | 4.0 | 0.00 | 0.00 | 0.00 | 90 | 1011.8 |
| 20260509034628 | 74 | 101 | 4.0 | 6.0 | 0.00 | 0.00 | 0.00 | 90 | 1011.7 |
| 20260509034125 | 74 | 148 | 0.0 | 1.0 | 0.00 | 0.00 | 0.00 | 90 | 1011.5 |
| 20260509033622 | 74 | 159 | 4.0 | 4.0 | 0.00 | 0.00 | 0.00 | 90 | 1011.5 |
| 20260509033119 | 74 | 162 | 3.0 | 3.0 | 0.00 | 0.00 | 0.00 | 90 | 1011.5 |
| 20260509032616 | 74 | 124 | 2.0 | 2.0 | 0.00 | 0.00 | 0.00 | 90 | 1011.3 |
| 20260509032113 | 74 | 148 | 1.0 | 1.0 | 0.00 | 0.00 | 0.00 | 90 | 1011.3 |
| 20260509031611 | 74 | 146 | 2.0 | 3.0 | 0.00 | 0.00 | 0.00 | 90 | 1011.5 |
| 20260509031108 | 74 | 139 | 2.0 | 4.0 | 0.00 | 0.00 | 0.00 | 90 | 1011.4 |
| 20260509030606 | 74 | 156 | 2.0 | 2.0 | 0.00 | 0.00 | 0.00 | 90 | 1011.2 |
| 20260509025559 | 74 | 113 | 1.0 | 1.0 | 0.00 | 0.00 | 0.00 | 89 | 1011.2 |
| 20260509025054 | 74 | 131 | 1.0 | 2.0 | 0.00 | 0.00 | 0.00 | 89 | 1011.4 |
| 20260509024550 | 75 | 86 | 2.0 | 3.0 | 0.00 | 0.00 | 0.00 | 89 | 1011.4 |
| 20260509024047 | 75 | 70 | 1.0 | 1.0 | 0.00 | 0.00 | 0.00 | 88 | 1011.4 |
| 20260509023545 | 75 | 95 | 3.0 | 3.0 | 0.00 | 0.00 | 0.00 | 88 | 1011.4 |
| 20260509023041 | 75 | 96 | 3.0 | 3.0 | 0.00 | 0.00 | 0.00 | 88 | 1011.3 |
| 20260509022538 | 75 | 64 | 3.0 | 4.0 | 0.00 | 0.00 | 0.00 | 88 | 1011.0 |
| 20260509022036 | 75 | 100 | 4.0 | 6.0 | 0.00 | 0.00 | 0.00 | 88 | 1011.0 |
| 20260509021533 | 75 | 105 | 6.0 | 7.0 | 0.00 | 0.00 | 0.00 | 87 | 1010.8 |
| 20260509021029 | 75 | 91 | 4.0 | 4.0 | 0.00 | 0.00 | 0.00 | 87 | 1010.8 |
| 20260509020528 | 75 | 122 | 2.0 | 2.0 | 0.00 | 0.00 | 0.00 | 87 | 1010.5 |
| 20260509020024 | 75 | 132 | 2.0 | 2.0 | 0.00 | 0.00 | 0.00 | 87 | 1010.8 |
| 20260509015523 | 76 | 134 | 4.0 | 4.0 | 0.00 | 0.00 | 0.00 | 86 | 1010.7 |
| 20260509015020 | 76 | 102 | 5.0 | 6.0 | 0.00 | 0.00 | 0.00 | 86 | 1010.9 |
| 20260509014516 | 76 | 116 | 6.0 | 7.0 | 0.00 | 0.00 | 0.00 | 86 | 1010.4 |
| 20260509014007 | 76 | 121 | 5.0 | 6.0 | 0.00 | 0.00 | 0.00 | 86 | 1010.6 |
| 20260509013504 | 76 | 75 | 4.0 | 7.0 | 0.00 | 0.00 | 0.00 | 85 | 1010.4 |
| 20260509013000 | 76 | 113 | 6.0 | 7.0 | 0.00 | 0.00 | 0.00 | 85 | 1010.5 |
| 20260509012456 | 76 | 91 | 3.0 | 3.0 | 0.00 | 0.00 | 0.00 | 85 | 1010.4 |
| 20260509011953 | 77 | 122 | 4.0 | 4.0 | 0.00 | 0.00 | 0.00 | 85 | 1010.3 |
| 20260509011451 | 77 | 102 | 2.0 | 3.0 | 0.00 | 0.00 | 0.00 | 85 | 1010.3 |
| 20260509010948 | 77 | 103 | 4.0 | 6.0 | 0.00 | 0.00 | 0.00 | 84 | 1010.5 |
| 20260509010446 | 77 | 98 | 3.0 | 4.0 | 0.00 | 0.00 | 0.00 | 84 | 1010.6 |
| 20260509005942 | 77 | 113 | 4.0 | 6.0 | 0.00 | 0.00 | 0.00 | 84 | 1010.5 |
| 20260509005440 | 77 | 94 | 2.0 | 3.0 | 0.00 | 0.00 | 0.00 | 83 | 1010.5 |
| 20260509004935 | 77 | 76 | 5.0 | 8.0 | 0.00 | 0.00 | 0.00 | 83 | 1010.3 |
| 20260509004431 | 77 | 82 | 6.0 | 7.0 | 0.00 | 0.00 | 0.00 | 83 | 1010.3 |
| 20260509003929 | 77 | 88 | 3.0 | 4.0 | 0.00 | 0.00 | 0.00 | 83 | 1010.4 |
| 20260509003427 | 77 | 64 | 3.0 | 3.0 | 0.00 | 0.00 | 0.00 | 82 | 1010.4 |
| 20260509002923 | 77 | 81 | 2.0 | 4.0 | 0.00 | 0.00 | 0.00 | 82 | 1010.5 |
| 20260509002422 | 77 | 101 | 4.0 | 6.0 | 0.00 | 0.00 | 0.00 | 82 | 1010.4 |
| 20260509001918 | 77 | 111 | 4.0 | 6.0 | 0.00 | 0.00 | 0.00 | 82 | 1010.4 |
| 20260509001415 | 77 | 113 | 4.0 | 6.0 | 0.00 | 0.00 | 0.00 | 82 | 1010.5 |
| 20260509000912 | 77 | 87 | 2.0 | 3.0 | 0.00 | 0.00 | 0.00 | 82 | 1010.4 |
| 20260509000410 | 78 | 11 | 1.0 | 1.0 | 0.00 | 0.00 | 0.00 | 82 | 1010.6 |
| 20260508235905 | 78 | 43 | 1.0 | 3.0 | 0.00 | 0.00 | 0.00 | 81 | 1010.4 |
| 20260508235403 | 78 | 96 | 3.0 | 4.0 | 0.00 | 0.00 | 0.00 | 80 | 1010.5 |
| 20260508234900 | 78 | 38 | 2.0 | 2.0 | 0.00 | 0.00 | 0.00 | 80 | 1010.4 |
| 20260508234356 | 78 | 83 | 5.0 | 7.0 | 0.00 | 0.00 | 0.00 | 80 | 1010.3 |
| 20260508233855 | 78 | 101 | 6.0 | 8.0 | 0.00 | 0.00 | 0.00 | 80 | 1010.5 |
| 20260508233354 | 78 | 104 | 5.0 | 8.0 | 0.00 | 0.00 | 0.00 | 80 | 1010.4 |
| 20260508232850 | 78 | 80 | 3.0 | 3.0 | 0.00 | 0.00 | 0.00 | 80 | 1010.6 |
| 20260508232347 | 78 | 93 | 4.0 | 4.0 | 0.00 | 0.00 | 0.00 | 80 | 1010.5 |
| 20260508231845 | 78 | 82 | 0.0 | 0.0 | 0.00 | 0.00 | 0.00 | 81 | 1010.4 |
| 20260508231341 | 78 | 125 | 1.0 | 2.0 | 0.00 | 0.00 | 0.00 | 81 | 1010.3 |
| 20260508230838 | 77 | 100 | 6.0 | 7.0 | 0.00 | 0.00 | 0.00 | 81 | 1010.3 |
| 20260508230334 | 77 | 87 | 4.0 | 4.0 | 0.00 | 0.00 | 0.00 | 81 | 1010.5 |
| 20260508225832 | 77 | 58 | 0.0 | 2.0 | 0.00 | 0.00 | 0.00 | 82 | 1010.5 |
| 20260508225328 | 77 | 89 | 4.0 | 7.0 | 0.00 | 0.00 | 0.00 | 82 | 1010.5 |
| 20260508224827 | 77 | 83 | 4.0 | 4.0 | 0.00 | 0.00 | 0.00 | 82 | 1010.6 |
| 20260508224324 | 77 | 16 | 1.0 | 2.0 | 0.00 | 0.00 | 0.00 | 82 | 1010.5 |
| 20260508223821 | 77 | 66 | 4.0 | 7.0 | 0.00 | 0.00 | 0.00 | 81 | 1010.5 |
| 20260508223318 | 77 | 68 | 2.0 | 2.0 | 0.00 | 0.00 | 0.00 | 81 | 1010.4 |
| 20260508222816 | 77 | 93 | 5.0 | 9.0 | 0.00 | 0.00 | 0.00 | 81 | 1010.3 |
| 20260508222313 | 78 | 66 | 3.0 | 6.0 | 0.00 | 0.00 | 0.00 | 81 | 1010.7 |
| 20260508221809 | 78 | 354 | 3.0 | 6.0 | 0.00 | 0.00 | 0.00 | 81 | 1010.5 |
| 20260508221305 | 78 | 16 | 3.0 | 6.0 | 0.00 | 0.00 | 0.00 | 80 | 1010.5 |
| 20260508220801 | 78 | 52 | 3.0 | 6.0 | 0.00 | 0.00 | 0.00 | 79 | 1010.6 |
| 20260508220258 | 78 | 69 | 8.0 | 9.0 | 0.00 | 0.00 | 0.00 | 80 | 1010.5 |
| 20260508215755 | 78 | 35 | 2.0 | 6.0 | 0.00 | 0.00 | 0.00 | 80 | 1010.6 |
| 20260508215251 | 77 | 71 | 5.0 | 6.0 | 0.00 | 0.00 | 0.00 | 80 | 1010.6 |
| 20260508214749 | 77 | 46 | 5.0 | 7.0 | 0.00 | 0.00 | 0.00 | 80 | 1010.7 |
| 20260508214246 | 78 | 67 | 2.0 | 4.0 | 0.00 | 0.00 | 0.00 | 79 | 1010.9 |
| 20260508213742 | 78 | 23 | 2.0 | 3.0 | 0.00 | 0.00 | 0.00 | 79 | 1010.8 |
| 20260508213238 | 77 | 75 | 1.0 | 2.0 | 0.00 | 0.00 | 0.00 | 81 | 1010.8 |
| 20260508212730 | 78 | 31 | 3.0 | 4.0 | 0.00 | 0.00 | 0.00 | 79 | 1010.7 |
| 20260508212226 | 78 | 68 | 4.0 | 8.0 | 0.00 | 0.00 | 0.00 | 78 | 1011.0 |
| 20260508211722 | 78 | 14 | 0.0 | 0.0 | 0.00 | 0.00 | 0.00 | 79 | 1011.1 |
| 20260508211218 | 78 | 103 | 2.0 | 3.0 | 0.00 | 0.00 | 0.00 | 79 | 1011.1 |
| 20260508210715 | 79 | 101 | 4.0 | 6.0 | 0.00 | 0.00 | 0.00 | 78 | 1011.2 |
| 20260508210212 | 78 | 52 | 1.0 | 3.0 | 0.00 | 0.00 | 0.00 | 79 | 1011.5 |
| 20260508205709 | 78 | 47 | 4.0 | 6.0 | 0.00 | 0.00 | 0.00 | 78 | 1011.4 |
| 20260508205205 | 77 | 79 | 2.0 | 3.0 | 0.00 | 0.00 | 0.00 | 80 | 1011.4 |
| 20260508204701 | 78 | 67 | 6.0 | 8.0 | 0.00 | 0.00 | 0.00 | 78 | 1011.5 |
| 20260508204158 | 77 | 325 | 2.0 | 3.0 | 0.00 | 0.00 | 0.00 | 78 | 1011.5 |
| 20260508203654 | 79 | 33 | 4.0 | 4.0 | 0.00 | 0.00 | 0.00 | 77 | 1011.8 |
| 20260508203150 | 77 | 327 | 0.0 | 1.0 | 0.00 | 0.00 | 0.00 | 79 | 1011.5 |
| 20260508202647 | 77 | 34 | 2.0 | 3.0 | 0.00 | 0.00 | 0.00 | 80 | 1011.6 |
| 20260508202144 | 78 | 165 | 2.0 | 3.0 | 0.00 | 0.00 | 0.00 | 78 | 1011.8 |
| 20260508201641 | 77 | 359 | 4.0 | 6.0 | 0.00 | 0.00 | 0.00 | 77 | 1011.9 |
| 20260508201137 | 76 | 56 | 1.0 | 2.0 | 0.00 | 0.00 | 0.00 | 80 | 1011.9 |
| 20260508200634 | 76 | 55 | 3.0 | 4.0 | 0.00 | 0.00 | 0.00 | 80 | 1012.1 |
| 20260508200130 | 75 | 76 | 2.0 | 3.0 | 0.00 | 0.00 | 0.00 | 79 | 1012.3 |
| 20260508195627 | 75 | 49 | 3.0 | 4.0 | 0.00 | 0.00 | 0.00 | 80 | 1012.2 |
| 20260508195123 | 76 | 53 | 4.0 | 6.0 | 0.00 | 0.00 | 0.00 | 79 | 1012.3 |
| 20260508194620 | 75 | 31 | 1.0 | 2.0 | 0.00 | 0.00 | 0.00 | 79 | 1012.5 |
| 20260508194117 | 75 | 40 | 5.0 | 7.0 | 0.00 | 0.00 | 0.00 | 79 | 1012.4 |
| 20260508193614 | 76 | 56 | 2.0 | 3.0 | 0.00 | 0.00 | 0.00 | 79 | 1012.5 |
| 20260508193110 | 75 | 81 | 4.0 | 4.0 | 0.00 | 0.00 | 0.00 | 78 | 1012.5 |
| 20260508192607 | 77 | 85 | 6.0 | 7.0 | 0.00 | 0.00 | 0.00 | 77 | 1012.4 |
| 20260508192104 | 77 | 76 | 2.0 | 3.0 | 0.00 | 0.00 | 0.00 | 77 | 1012.6 |
| 20260508191601 | 76 | 81 | 8.0 | 11.0 | 0.00 | 0.00 | 0.00 | 77 | 1012.5 |
| 20260508191057 | 76 | 97 | 4.0 | 6.0 | 0.00 | 0.00 | 0.00 | 77 | 1012.7 |
| 20260508190549 | 77 | 68 | 3.0 | 3.0 | 0.00 | 0.00 | 0.00 | 76 | 1012.5 |
| 20260508190045 | 77 | 24 | 0.0 | 0.0 | 0.00 | 0.00 | 0.00 | 77 | 1012.8 |
| 20260508185543 | 76 | 21 | 5.0 | 6.0 | 0.00 | 0.00 | 0.00 | 77 | 1012.7 |
| 20260508185040 | 75 | 353 | 3.0 | 4.0 | 0.00 | 0.00 | 0.00 | 77 | 1012.7 |
| 20260508184537 | 75 | 23 | 4.0 | 7.0 | 0.00 | 0.00 | 0.00 | 77 | 1012.9 |
| 20260508184034 | 75 | 71 | 4.0 | 7.0 | 0.00 | 0.00 | 0.00 | 77 | 1013.2 |
| 20260508183531 | 74 | 142 | 2.0 | 2.0 | 0.00 | 0.00 | 0.00 | 78 | 1013.0 |
| 20260508183027 | 75 | 55 | 2.0 | 3.0 | 0.00 | 0.00 | 0.00 | 77 | 1013.2 |
| 20260508182523 | 76 | 340 | 3.0 | 3.0 | 0.00 | 0.00 | 0.00 | 75 | 1013.5 |
| 20260508182020 | 75 | 149 | 2.0 | 3.0 | 0.00 | 0.00 | 0.00 | 77 | 1013.4 |
| 20260508181515 | 76 | 39 | 0.0 | 1.0 | 0.00 | 0.00 | 0.00 | 76 | 1013.5 |